Volver al catálogo

MAGION 2

ActivoCienciaPO
NORAD 20281·PAYLOAD·🇨🇿 Czechia

Lanzado Sep 28, 1989 desde Plesetsk Cosmodrome

Loading…

Próximos Pases (próximas 24 horas)

TLE

ActualizadoSource: Space-Track

Época: Sep 14, 2026, 14:29 UTC

1 20281U 89080B   26257.60414460  .00000494  00000-0  13416-3 0  9990
2 20281  82.6036 313.8622 1172642 107.3967 265.8596 12.63119875693362

Sigue MAGION 2 en tiempo real con AllMySat

Download on the App Store